Location: Bellenaves
(46.1998°N, 3.0821°E)
Time: 11:58:28
(UTC+00:00)

Daily predictions for brighter satellites

Satellite Brightness Start Highest point End
(mag) Time Altitude Azimuth Time Altitude Azimuth Time Altitude Azimuth
Cosmos 1459 Rocket 4.5 16:40:01 10° NNW 16:46:23 72° W 16:52:43 10° S
Cosmos 2016 Rocket 4.1 16:41:20 10° N 16:47:45 84° E 16:54:07 10° S
ATLAS 5 CENTAUR R/B 3.1 16:47:19 10° NNW 16:52:18 32° NE 16:57:54 10° E
Cosmos 1408 Rocket 3.6 16:48:56 10° N 16:53:22 88° WSW 16:57:48 10° S
Cosmos 1500 Rocket 3.8 16:53:32 10° N 16:57:49 48° ENE 17:02:01 10° SSE
CZ-4 R/B 2.8 16:56:35 10° ESE 16:59:33 19° ENE 17:02:30 10° NNE
Cosmos 1340 Rocket 3.0 16:56:17 10° SSW 17:00:17 79° WNW 17:04:22 10° N
Cosmos 1408 3.3 17:02:38 10° NNW 17:06:12 58° W 17:09:43 10° S
COSMO-SKYMED 1 3.7 17:04:54 10° NE 17:08:23 23° E 17:11:51 10° SSE
Cosmos 1869 4.3 17:07:20 10° SE 17:10:35 24° E 17:13:49 10° NE
SeaSat 1 2.4 17:05:52 10° SE 17:10:45 68° ENE 17:15:41 10° NNW
Cosmos 1607 4.3 17:06:26 10° NNW 17:12:21 44° NE 17:18:18 10° ESE
Geosat 4.1 17:07:22 10° NNE 17:12:23 64° ESE 17:17:22 10° SSW
Cosmos 1437 2.7 17:09:24 10° NNW 17:12:30 80° W 17:15:33 10° S
Cosmos 1867 3.6 17:11:34 10° SSW 17:16:57 65° ESE 17:22:23 10° NE
Cosmos 1825 2.8 17:13:44 10° NNW 17:17:29 60° W 17:21:12 10° S
BREEZE-M DEB (TANK) 4.4 17:15:21 10° SW 17:19:14 59° SE 17:30:37 13° ENE
Sich 1 3.8 17:18:23 10° NNE 17:22:10 28° ENE 17:25:56 10° SE
Cosmos 2219 3.2 17:16:58 10° NNW 17:22:32 60° ENE 17:28:05 10° SE
NOAA 12 4.1 17:18:09 10° SSE 17:23:26 70° ENE 17:28:46 10° N
GEOS 3 Rocket 3.8 17:18:26 10° NE 17:23:39 75° NW 17:28:54 10° SW
Ariane Rocket 4.4 17:25:09 16° E 17:26:47 18° ENE 17:30:07 10° NNE
Cosmos 2369 Rocket 4.4 17:25:41 10° W 17:29:44 20° NW 17:33:49 10° N
Cosmos 2084 3.4 17:27:10 10° NW 17:31:27 60° NE 17:35:37 10° SE
CZ-3B R/B 3.9 17:32:35 10° W 17:34:40 28° NNW 17:36:31 17° NE
FengYun 1-2 T 4.3 17:30:13 10° SSE 17:35:37 57° ENE 17:41:00 10° N
Okean-O 2.7 17:32:06 10° SSE 17:36:31 86° WSW 17:41:00 10° NNW
CENTAUR R/B 4.4 17:31:30 10° NW 17:36:38 21° N 17:42:18 10° NE
Meteor 2-2 Rocket 4.3 17:32:42 10° S 17:38:33 68° E 17:44:19 10° NNE
Cosmos 2344 3.9 17:31:10 10° SW 17:38:37 67° NW 17:47:00 10° NE
YAOGAN 1 3.0 17:35:04 10° SE 17:39:03 37° ENE 17:43:03 10° N
Cosmos 773 Rocket 3.9 17:34:16 10° S 17:39:20 65° ESE 17:44:30 10° NNE
NOSS 7 (D) 4.0 17:39:11 10° SW 17:42:10 72° NW 17:43:33 26° NNE
CSL-04 Rocket 3.8 17:38:54 10° SE 17:44:02 48° ENE 17:49:08 10° N
Cosmos 2227 Rocket 2.2 17:40:51 10° NNW 17:46:28 57° ENE 17:52:02 10° SE
Cosmos 2297 Rocket 2.2 17:41:31 10° NNW 17:47:09 62° ENE 17:52:45 10° SE
Cosmos 1538 Rocket 4.0 17:44:37 10° S 17:49:47 61° ESE 17:54:53 11° NNE
Cosmos 2221 3.2 17:45:40 10° SSW 17:49:53 56° WNW 17:54:10 10° N
Cosmos 1633 3.0 17:47:24 10° N 17:50:51 38° ENE 17:52:46 21° SE
ATLAS 3B R/B 4.5 17:47:00 10° NW 17:51:23 18° N 17:55:45 10° NNE
TELKOM 3 3.3 17:49:58 10° WNW 17:51:42 47° NW 17:51:42 47° NW
NOSS 8 (A) 4.0 17:49:15 10° SSW 17:52:28 77° SE 17:53:21 42° NE
SKYMED 2 3.4 17:52:23 10° NNE 17:56:45 72° ESE 18:01:05 10° S
Cosmos 1862 3.7 17:53:13 10° N 17:56:58 39° ENE 17:57:45 35° ESE
Cosmos 2369 4.4 17:54:25 10° SSE 17:59:22 32° ESE 18:00:29 30° E
USA 116 4.2 17:56:23 15° NNE 17:59:56 51° E 18:04:42 10° S
PSLV R/B 4.5 17:57:55 10° SW 17:59:47 21° S 17:59:47 21° S
YAOGAN 6 2.4 17:59:43 10° SSE 18:03:14 86° WSW 18:06:45 10° NNW
CZ-4 R/B 4.5 18:03:26 10° S 18:07:33 81° WSW 18:11:44 10° NNW
Cosmos 1356 Rocket 3.3 18:04:36 10° S 18:08:43 85° ESE 18:12:39 12° NNE
Cosmos 1805 Rocket 3.9 18:06:21 10° NNW 18:10:41 66° W 18:14:59 10° S
Lacrosse 4 Rocket 2.8 18:08:02 10° S 18:10:04 23° SSE 18:10:04 23° SSE
Cosmos 2082 3.7 18:06:27 10° NNW 18:12:00 57° ENE 18:14:49 28° SE
Genesis I 3.7 18:08:39 10° SW 18:12:37 60° NW 18:14:20 31° NNE
Cosmos 2263 Rocket 3.9 18:11:05 10° N 18:13:29 16° NNE 18:13:29 16° NNE
Cosmos 1464 Rocket 3.8 18:10:37 10° N 18:16:50 83° E 18:22:57 10° S
BREEZE-M DEB (TANK) 3.1 18:12:36 10° SW 18:17:23 35° SSE 18:17:34 35° SSE
Cosmos 1891 Rocket 4.4 18:11:17 10° N 18:17:44 84° E 18:24:00 10° S
Cosmos 2278 4.4 18:15:15 10° S 18:19:26 33° SE 18:19:26 33° SE
Envisat 4.1 18:17:34 10° S 18:22:25 45° W 18:27:18 10° NNW
USA 215 3.2 18:21:35 35° E 18:24:28 67° NNE 18:30:58 10° NW
Cosmos 1072 Rocket 4.5 18:18:24 10° N 18:24:32 81° W 18:30:41 10° S
Cosmos 1697 Rocket 2.8 18:21:12 10° S 18:26:36 48° ESE 18:26:55 48° E
BREEZE-M DEB (TANK) 2.6 18:21:24 10° W 18:28:03 55° N 18:28:16 54° N
USA 229 DEB 3.6 18:27:09 10° SW 18:33:44 84° NW 18:37:27 30° NE
USA 229 3.6 18:27:17 10° SW 18:33:51 85° NW 18:37:30 30° NE
CZ-4 R/B 2.6 18:30:16 10° S 18:34:17 44° W 18:38:16 10° NNW
Cosmos 724 4.4 18:30:17 10° NNW 18:36:00 50° NE 18:36:09 50° NE
ATLAS 5 CENTAUR R/B 2.6 18:31:38 10° NW 18:37:25 69° SW 18:42:10 20° SSE
NOSS 3-1 (A) 3.2 18:33:27 10° SSW 18:38:54 67° ESE 18:39:52 57° ENE
NOSS 3-1 (C) 3.3 18:35:23 10° SW 18:40:57 81° NW 18:43:21 40° NNE
Cosmos 1633 Rocket 3.2 18:38:00 10° NNW 18:42:23 70° W 18:45:35 18° S
COSMO-SKYMED 1 4.0 18:40:39 10° N 18:44:39 37° WNW 18:48:39 10° SW
Cosmos 1939 Rocket 3.9 18:55:01 42° NW 18:55:01 42° NW 18:57:57 10° NNW
NOAA 11 4.4 18:49:45 10° S 18:55:08 67° WSW 19:00:34 10° NNW
Cosmos 1680 Rocket 3.9 18:51:00 10° SSW 18:54:48 49° S 18:54:48 49° S
H-2A R/B 4.1 19:02:21 17° N 19:02:21 17° N 19:03:36 10° N
Ariane Rocket 3.1 19:05:22 71° W 19:05:22 71° W 19:10:17 10° NNW
Cosmos 1656 4.4 19:04:45 10° SW 19:10:08 49° WNW 19:11:50 37° N
Cosmos 1980 Rocket 4.1 19:23:32 10° SSW 19:24:56 18° SSW 19:24:56 18° SSW
Cosmos 2227 Rocket 4.3 19:25:41 10° NW 19:30:06 24° WSW 19:34:30 10° SSW
CENTAUR R/B 4.3 19:24:02 10° NW 19:29:38 25° NNE 19:29:38 25° NNE
Tsikada Rocket 4.4 19:24:19 10° SSW 19:30:35 62° WNW 19:36:58 10° N
Cosmos 2297 Rocket 4.4 19:26:29 10° NW 19:30:42 22° W 19:34:54 10° SSW
ATLAS 3B R/B 4.4 19:39:50 10° NNW 19:43:07 19° N 19:43:07 19° N
Cosmos 2263 Rocket 4.4 19:53:54 10° NNW 19:55:12 18° NNW 19:55:12 18° NNW
USA 215 4.3 20:08:58 40° WSW 20:08:58 40° WSW 20:13:54 10° WNW
